User: anonymous
Location: Lake Runnemede Observatory
(43.4843°N, 72.3851°W)
Time: 17:59:11
(UTC-04:00)
Language:

SPOT 5 - Orbit

View from above orbital plane
View from above orbital plane
View from above satellite
View from above satellite

Ground track
Ground track

The orbit data is extracted from the following two-line orbital elements,

1 27421U 02021A   14233.57982701 -.00000015  00000-0  00000+0 0  8550
2 27421 098.5592 294.6225 0001172 082.4812 277.6980 14.20106504637606
Epoch (UTC): 21 August 2014 13:54:57
Eccentricity: 0.0001172
inclination: 98.5592°
perigee height: 824 km
apogee height: 826 km
right ascension of ascending node: 294.6225°
argument of perigee: 82.4812°
revolutions per day: 14.20106504
mean anomaly at epoch: 277.6980°
orbit number at epoch: 63760

The dashed part of the orbit path shows where the satellite is in the earth's shadow,  

DLR